This is the latest recevied weather packets stored in our database for station/object KK7KRZ. If no packets are shown the sender has not sent any weather packets the latest 10 day(s).
| Time | Temp. | Humidity | Pressure | Rain* | Wind** | Luminosity | Snow |
|---|---|---|---|---|---|---|---|
| 1776999419 | 12.78° C | 68% | 1019.5 hPa | 0 mm | - | 2 W/m² | - |
| 1776999116 | 12.78° C | 67% | 1019.8 hPa | 0 mm | - | 3 W/m² | - |
| 1776998812 | 12.78° C | 64% | 1019.8 hPa | 0 mm | - | 4 W/m² | - |
| 1776998509 | 12.78° C | 67% | 1019.7 hPa | 0 mm | - | 6 W/m² | - |
| 1776998206 | 12.78° C | 65% | 1019.6 hPa | 0 mm | - | 8 W/m² | - |
| 1776997901 | 13.33° C | 64% | 1019.7 hPa | 0 mm | - | 11 W/m² | - |
| 1776997597 | 13.33° C | 65% | 1019.5 hPa | 0 mm | - | 13 W/m² | - |
| 1776997292 | 13.33° C | 62% | 1019.6 hPa | 0 mm | - | 16 W/m² | - |
| 1776996989 | 13.33° C | 63% | 1019.7 hPa | 0 mm | - | 19 W/m² | - |
| 1776996685 | 13.33° C | 62% | 1019.5 hPa | 0 mm | - | 22 W/m² | - |
| 1776996382 | 13.33° C | 61% | 1019.7 hPa | 0 mm | - | 26 W/m² | - |
| 1776996078 | 13.33° C | 63% | 1019.6 hPa | 0 mm | - | 27 W/m² | - |
| 1776995775 | 13.89° C | 62% | 1019.8 hPa | 0 mm | - | 32 W/m² | - |
| 1776995475 | 13.89° C | 63% | 1020 hPa | 0 mm | - | 36 W/m² | - |
| 1776995175 | 13.89° C | 61% | 1020 hPa | 0 mm | - | 38 W/m² | - |
| 1776994872 | 13.89° C | 62% | 1019.9 hPa | 0 mm | - | 46 W/m² | - |
| 1776994572 | 13.89° C | 61% | 1019.8 hPa | 0 mm | - | 50 W/m² | - |
| 1776994268 | 14.44° C | 64% | 1019.9 hPa | 0 mm | - | 54 W/m² | - |
| 1776993965 | 13.89° C | 63% | 1020.1 hPa | 0 mm | - | 58 W/m² | - |
| 1776993663 | 13.89° C | 60% | 1020 hPa | 0 mm | - | 64 W/m² | - |
| 1776993360 | 13.89° C | 59% | 1020.1 hPa | 0 mm | - | 65 W/m² | - |
| 1776993056 | 13.89° C | 60% | 1020.2 hPa | 0 mm | - | 69 W/m² | - |
| 1776992753 | 13.89° C | 60% | 1020.3 hPa | 0 mm | - | 72 W/m² | - |
| 1776992449 | 13.89° C | 59% | 1020.3 hPa | 0 mm | - | 75 W/m² | - |
| 1776992147 | 13.89° C | 59% | 1020.3 hPa | 0 mm | - | 88 W/m² | - |
* Rain latest hour (hover to see other rain measurements)
** Current wind speed in m/s (hover to see current wind gust speed)